Location: Hohe Wand Wildgehege
(47.8330°N, 16.0440°E)
Time: 06:13:27
(UTC+02:00)

Envisat - Visible Passes

Search period start: 20 April 2019 00:00
Search period end: 30 April 2019 00:00
Orbit: 764 x 766 km, 98.2° (Epoch: 19 April)

Date Brightness Start Highest point End Pass type
(mag) Time Alt. Az. Time Alt. Az. Time Alt. Az.
20 Apr 6.1 21:07:12 10° WSW 21:08:57 12° W 21:10:44 10° WNW visible
21 Apr 5.5 20:27:37 10° SSW 20:31:45 24° W 20:35:52 10° NW visible
23 Apr 5.9 20:54:46 10° WSW 20:57:34 15° W 21:00:23 10° NW visible
26 Apr 5.7 20:42:44 10° SW 20:46:13 18° W 20:49:42 10° NW visible
28 Apr 6.2 21:11:04 10° W 21:12:06 11° W 21:13:08 10° WNW visible
29 Apr 5.6 20:30:55 10° SW 20:34:51 23° W 20:38:50 10° NW visible
